STARLINK-32956, 63570

Orbit data source: Space-Track

STARLINK-32956, 63570 is a payload satellite owned by SpaceX/Seattle (US) in LEO that was launched on Mon, 14 Apr 2025 UTC via an FALCON 9 launch vehicle from the Air Force Eastern Test Range (AFETR). Payload-class satellites include a variety of spacecraft equipped with specific instruments for various scientific and technological missions. These include communications satellites like Starlink; space stations such as the ISS; scientific satellites like the Hubble; Earth observation satellites from companies like Planet Labs, Umbra, and HawkEye 360; GPS; miniature CubeSats for education and research; and military/defense satellites.

Loading next visibility...
Identifier
63570, 2025-076B
Orbit
LEO
Last TLE update
19 hours ago
Origin
Manufacturer
SpaceX/Seattle
Mission
Operational Commercial Communications
Bus & Motor
STARLINK V2M, Unknown motor
Mass
730 kg wet, ~700 kg dry
Launch date (UTC)
2025-04-14 (3 months ago)
Launch vehicle
FALCON 9
Launch site
Air Force Eastern Test Range (AFETR)
Object type
Payload
Rocket body
Debris
Shape & HBR
Box + 2 Pan, 29 m
Radar Cross Section
36.964 m², Large (>1 m²)

Expand to show TLE details & history

TLE from 19 hours ago
0 STARLINK-32956
1 63570U 25076B   25181.62220579  .00014836  00000-0  54719-3 0  9992
2 63570  43.0020 308.4540 0002943 287.7498  72.3032 15.27601480 13172
Epoch: 2025-06-30T14:55Z
TLE epoch observation values (Epoch: 2025-06-30T14:55:58.58Z)
Latitude
-0.00004°
Longitude
165.53051°
Altitude
482.147 km
Speed
7.627 km/s
True Right ascension
20h 33m 48s
True Declination
0° 00' 00"
Sunlit
Object was in full shadow at epoch
Visualization orbit readout
Latitude
27.39485°
Longitude
-165.39818°
Altitude
483.762 km
Speed
7.627 km/s
Apparent Right ascension
01h 14m 01s
Apparent Declination
-27° 43' 30"
Sunlit
Object is in daylight
Visualization observer readout
Local Sidereal Time
21:35:13
Azimuth
133.478° SE
Elevation
5.382°
Doppler factor
1
Orbital elements
Apogee altitude
486.949 km
Perigee altitude
482.91 km
Semi-major axis
6,863.067 km
Eccentricity
0.00029
Inclination
43.002°
RAAN
308.454°
Arg. of periapsis
287.7498°
True anomaly
Unknown
Mean anomaly
72.3032°
Eccentric anomaly
Unknown
Mean motion
3.81738 °/min
Orbital period
94.31 mins
BSTAR
0.00054719
Loading maneuver chart data...
Loading SW <> Apogee altitude chart data...
Loading historical data...
Loading historical data...
Loading historical data...
Loading historical data...
Loading historical data...
Loading historical data...
Loading historical data...

STARLINK-32956 Visibility forecast

Observer location: undefined°, undefined°

Span
Click to sort rows by Start time (UTC) header in descending order
Start Az.
Max El. time (UTC)
Max El. Az.
Max El.
End time (UTC)
End Az.
6 mins2025-07-01 11:31:51.166Z211.779° SW2025-07-01 11:34:51.166Z149.597° SSE28.705°2025-07-01 11:37:51.166Z87.139° E
5 mins2025-07-01 13:11:51.166Z266.88° W2025-07-01 13:13:51.166Z14.122° NNE43.098°2025-07-01 13:16:51.166Z69.856° E
5 mins2025-07-01 14:50:51.166Z295.933° NW2025-07-01 14:52:51.166Z3.857° NNE38.447°2025-07-01 14:55:51.166Z78.903° E
5 mins2025-07-01 16:29:51.166Z283.616° WNW2025-07-01 16:31:51.166Z218.182° SW44.107°2025-07-01 16:34:51.166Z116.908° SE
|